• In Belarus
  • List of Countries
  • For 7 days
  • Water Temperature
  • Weather Map
  • Weather Widgets
  • user-avatar
    Login

    Hourly Weather Gluhovka

    Today, 4 April, Saturday

    Time Temperature Precipitation Wind Pressure Humidity
    00:00 +5°C° 0 mm 4 mps 742 mmHg 63%
    01:00 +4°C° 0 mm 4 mps 742 mmHg 65%
    02:00 +4°C° 0 mm 4 mps 742 mmHg 68%
    03:00 +2°C° 0 mm 5 mps 742 mmHg 67%
    04:00 +3°C° 0 mm 4 mps 742 mmHg 68%
    05:00 +3°C° 0 mm 4 mps 742 mmHg 70%
    06:00 +1°C° 0 mm 4 mps 742 mmHg 71%
    07:00 +4°C° 0 mm 4 mps 742 mmHg 66%
    08:00 +6°C° 0 mm 5 mps 743 mmHg 60%
    09:00 +7°C° 0 mm 5 mps 743 mmHg 52%
    10:00 +9°C° 0 mm 6 mps 743 mmHg 46%
    11:00 +10°C° 0 mm 6 mps 743 mmHg 40%
    12:00 +12°C° 0 mm 7 mps 743 mmHg 34%
    13:00 +12°C° 0 mm 7 mps 743 mmHg 36%
    14:00 +12°C° 0 mm 7 mps 743 mmHg 37%
    15:00 +12°C° 0 mm 7 mps 743 mmHg 39%
    16:00 +11°C° 0.1 mm 6 mps 743 mmHg 46%
    17:00 +9°C° 0.1 mm 5 mps 743 mmHg 54%
    18:00 +8°C° 0.1 mm 5 mps 743 mmHg 61%
    19:00 +7°C° 0 mm 4 mps 744 mmHg 62%
    20:00 +8°C° 0 mm 3 mps 744 mmHg 63%
    21:00 +7°C° 0 mm 3 mps 745 mmHg 63%
    22:00 +5°C° 0 mm 3 mps 745 mmHg 63%
    23:00 +5°C° 0 mm 3 mps 745 mmHg 62%

    Tomorrow, 5 April, Sunday

    Time Temperature Precipitation Wind Pressure Humidity
    00:00 +4°C° 0 mm 3 mps 746 mmHg 61%
    01:00 +3°C° 0 mm 3 mps 746 mmHg 64%
    02:00 +3°C° 0 mm 3 mps 746 mmHg 67%
    03:00 +2°C° 0 mm 3 mps 746 mmHg 70%
    04:00 +1°C° 0 mm 3 mps 747 mmHg 73%
    05:00 +1°C° 0 mm 3 mps 747 mmHg 75%
    06:00 0°C° 0 mm 3 mps 747 mmHg 78%
    07:00 +3°C° 0 mm 2 mps 747 mmHg 70%
    08:00 +4°C° 0 mm 2 mps 747 mmHg 62%
    09:00 +6°C° 0 mm 2 mps 748 mmHg 54%
    10:00 +6°C° 0.1 mm 2 mps 747 mmHg 49%
    11:00 +7°C° 0.1 mm 3 mps 747 mmHg 43%
    12:00 +8°C° 0.1 mm 3 mps 747 mmHg 37%
    13:00 +7°C° 0.2 mm 3 mps 747 mmHg 40%
    14:00 +6°C° 0.2 mm 4 mps 747 mmHg 44%
    15:00 +5°C° 0.2 mm 4 mps 746 mmHg 47%
    16:00 +5°C° 0.1 mm 4 mps 746 mmHg 45%
    17:00 +5°C° 0.1 mm 3 mps 746 mmHg 43%
    18:00 +5°C° 0.1 mm 3 mps 746 mmHg 42%
    19:00 +4°C° 0.1 mm 3 mps 746 mmHg 47%
    20:00 +3°C° 0.1 mm 3 mps 747 mmHg 52%
    21:00 +3°C° 0.1 mm 3 mps 747 mmHg 57%
    22:00 +1°C° 0.2 mm 5 mps 747 mmHg 66%
    23:00 -1°C° 0.2 mm 7 mps 747 mmHg 75%

    Day after tomorrow, 6 April, Monday

    Time Temperature Precipitation Wind Pressure Humidity
    00:00 -3°C° 0.2 mm 9 mps 747 mmHg 84%
    01:00 -2°C° 0 mm 8 mps 748 mmHg 77%
    02:00 -2°C° 0 mm 7 mps 748 mmHg 70%
    03:00 -2°C° 0 mm 6 mps 748 mmHg 63%
    04:00 -3°C° 0 mm 6 mps 748 mmHg 64%
    05:00 -3°C° 0 mm 6 mps 749 mmHg 65%
    06:00 -4°C° 0 mm 6 mps 749 mmHg 66%
    07:00 -3°C° 0 mm 7 mps 750 mmHg 62%
    08:00 -2°C° 0 mm 7 mps 750 mmHg 59%
    09:00 -2°C° 0 mm 8 mps 751 mmHg 55%
    10:00 -1°C° 0.2 mm 8 mps 751 mmHg 51%
    11:00 0°C° 0.2 mm 8 mps 751 mmHg 46%
    12:00 0°C° 0.2 mm 8 mps 751 mmHg 42%
    13:00 0°C° 0 mm 8 mps 751 mmHg 40%
    14:00 +1°C° 0 mm 8 mps 751 mmHg 38%
    15:00 +1°C° 0 mm 8 mps 751 mmHg 37%
    16:00 0°C° 0 mm 8 mps 752 mmHg 38%
    17:00 0°C° 0 mm 7 mps 752 mmHg 39%
    18:00 0°C° 0 mm 7 mps 752 mmHg 41%
    19:00 -1°C° 0 mm 6 mps 752 mmHg 44%
    20:00 -1°C° 0 mm 5 mps 753 mmHg 48%
    21:00 -1°C° 0 mm 5 mps 753 mmHg 52%
    22:00 -2°C° 0 mm 5 mps 753 mmHg 55%
    23:00 -2°C° 0 mm 4 mps 753 mmHg 58%

    7 April, Tuesday

    Time Temperature Precipitation Wind Pressure Humidity
    00:00 -3°C° 0 mm 4 mps 753 mmHg 61%
    01:00 -3°C° 0 mm 4 mps 754 mmHg 61%
    02:00 -3°C° 0 mm 4 mps 754 mmHg 62%
    03:00 -4°C° 0 mm 5 mps 754 mmHg 62%
    04:00 -5°C° 0 mm 5 mps 755 mmHg 61%
    05:00 -5°C° 0 mm 5 mps 755 mmHg 60%
    06:00 -5°C° 0 mm 5 mps 755 mmHg 59%
    07:00 -4°C° 0 mm 5 mps 756 mmHg 50%
    08:00 -2°C° 0 mm 6 mps 756 mmHg 41%
    09:00 -1°C° 0 mm 7 mps 756 mmHg 32%
    10:00 -1°C° 0 mm 6 mps 756 mmHg 31%
    11:00 +1°C° 0 mm 6 mps 756 mmHg 30%
    12:00 +2°C° 0 mm 6 mps 756 mmHg 28%
    13:00 +2°C° 0 mm 5 mps 756 mmHg 27%
    14:00 +3°C° 0 mm 5 mps 756 mmHg 27%
    15:00 +4°C° 0 mm 4 mps 756 mmHg 26%
    16:00 +4°C° 0 mm 4 mps 755 mmHg 29%
    17:00 +3°C° 0 mm 4 mps 755 mmHg 32%
    18:00 +3°C° 0 mm 3 mps 755 mmHg 34%
    19:00 +2°C° 0 mm 3 mps 755 mmHg 39%
    20:00 +1°C° 0 mm 3 mps 754 mmHg 43%
    21:00 0°C° 0 mm 3 mps 754 mmHg 48%
    22:00 0°C° 0 mm 3 mps 754 mmHg 51%
    23:00 0°C° 0 mm 3 mps 753 mmHg 54%

    8 April, Wednesday

    Time Temperature Precipitation Wind Pressure Humidity
    00:00 0°C° 0 mm 3 mps 753 mmHg 57%
    01:00 0°C° 0 mm 4 mps 752 mmHg 65%
    02:00 0°C° 0 mm 4 mps 751 mmHg 74%
    03:00 0°C° 0 mm 4 mps 751 mmHg 83%
    04:00 0°C° 0 mm 4 mps 750 mmHg 83%
    05:00 +1°C° 0 mm 4 mps 749 mmHg 84%
    06:00 +1°C° 0 mm 5 mps 749 mmHg 84%
    07:00 +3°C° 0 mm 5 mps 748 mmHg 80%
    08:00 +5°C° 0 mm 5 mps 747 mmHg 75%
    09:00 +7°C° 0 mm 6 mps 747 mmHg 70%
    10:00 +8°C° 0 mm 6 mps 746 mmHg 63%
    11:00 +10°C° 0 mm 6 mps 745 mmHg 56%
    12:00 +11°C° 0 mm 7 mps 745 mmHg 50%
    13:00 +11°C° 0.3 mm 7 mps 744 mmHg 54%
    14:00 +11°C° 0.3 mm 7 mps 744 mmHg 58%
    15:00 +11°C° 0.3 mm 7 mps 743 mmHg 62%
    16:00 +10°C° 0.1 mm 6 mps 743 mmHg 64%
    17:00 +10°C° 0.1 mm 5 mps 743 mmHg 66%
    18:00 +10°C° 0.1 mm 4 mps 743 mmHg 68%
    19:00 +10°C° 0.1 mm 4 mps 743 mmHg 73%
    20:00 +9°C° 0.1 mm 3 mps 744 mmHg 79%
    21:00 +8°C° 0.1 mm 3 mps 744 mmHg 84%
    22:00 +7°C° 0.1 mm 3 mps 744 mmHg 87%
    23:00 +7°C° 0.1 mm 3 mps 744 mmHg 89%

    9 April, Thursday

    Time Temperature Precipitation Wind Pressure Humidity
    00:00 +7°C° 0.1 mm 3 mps 744 mmHg 91%
    01:00 +5°C° 0 mm 3 mps 744 mmHg 92%
    02:00 +5°C° 0 mm 2 mps 744 mmHg 94%
    03:00 +5°C° 0 mm 2 mps 744 mmHg 95%
    04:00 +5°C° 0 mm 2 mps 744 mmHg 95%
    05:00 +5°C° 0 mm 2 mps 744 mmHg 95%
    06:00 +5°C° 0 mm 2 mps 745 mmHg 95%
    07:00 +5°C° 0 mm 3 mps 745 mmHg 87%
    08:00 +7°C° 0 mm 3 mps 745 mmHg 79%
    09:00 +8°C° 0 mm 3 mps 745 mmHg 71%
    10:00 +8°C° 0 mm 4 mps 744 mmHg 67%
    11:00 +10°C° 0 mm 4 mps 744 mmHg 62%
    12:00 +10°C° 0 mm 4 mps 744 mmHg 58%
    13:00 +11°C° 0 mm 4 mps 744 mmHg 55%
    14:00 +12°C° 0 mm 4 mps 743 mmHg 53%
    15:00 +12°C° 0 mm 3 mps 743 mmHg 50%
    16:00 +12°C° 0 mm 3 mps 742 mmHg 51%
    17:00 +12°C° 0 mm 3 mps 742 mmHg 53%
    18:00 +12°C° 0 mm 3 mps 741 mmHg 54%
    19:00 +11°C° 0 mm 3 mps 741 mmHg 58%
    20:00 +10°C° 0 mm 3 mps 741 mmHg 62%
    21:00 +8°C° 0 mm 4 mps 740 mmHg 66%
    22:00 +7°C° 0 mm 4 mps 740 mmHg 69%
    23:00 +7°C° 0 mm 4 mps 739 mmHg 71%
    Show more